EW7067 Weather Reports


Display with metric or nautical units.
time (UTC)temp
F
wind
direction
speed
MPH
gust
MPH
rain 1hr
in
rain 24hr
in
rain mn
in
humidity
%
barometer
mb
20260906231132 78 165 0.0 0.0 0.00 0.21 0.21 84 968.6
20260906230635 78 165 0.0 0.0 0.00 0.21 0.21 85 968.3
20260906230132 78 165 0.0 0.0 0.00 0.21 0.21 85 968.4
20260906225633 78 165 0.0 0.0 0.00 0.21 0.21 85 968.5
20260906225133 78 77 0.0 0.0 0.00 0.21 0.21 85 968.4
20260906224631 78 77 0.0 0.0 0.00 0.21 0.21 85 968.4
20260906224130 78 81 0.0 0.0 0.00 0.21 0.21 85 968.4
20260906223632 78 81 0.0 0.0 0.00 0.21 0.21 85 968.2
20260906223130 78 81 0.0 3.0 0.00 0.21 0.21 85 968.1
20260906222629 78 81 0.0 3.0 0.00 0.21 0.21 85 968.1
20260906222125 78 82 0.0 3.0 0.00 0.21 0.21 84 968.1
20260906221625 77 82 0.0 3.0 0.00 0.21 0.21 84 968.2
20260906220624 77 76 0.0 3.0 0.00 0.21 0.21 84 968.1
20260906220126 77 73 0.0 3.0 0.00 0.21 0.21 84 968.2
20260906215624 78 76 0.0 3.0 0.00 0.21 0.21 84 968.4
20260906214624 78 111 0.0 0.0 0.00 0.21 0.21 84 968.5
20260906214124 78 121 0.0 0.0 0.00 0.21 0.21 84 968.6
20260906213625 78 127 0.0 0.0 0.00 0.21 0.21 84 968.9
20260906213124 78 128 0.0 0.0 0.00 0.21 0.21 84 969.0
20260906212625 78 128 0.0 0.0 0.00 0.21 0.21 84 969.0
20260906212125 78 128 0.0 0.0 0.00 0.21 0.21 84 969.0
20260906211624 77 128 0.0 0.0 0.00 0.21 0.21 83 969.0
20260906211125 78 128 0.0 2.0 0.00 0.21 0.21 83 969.2
20260906210624 77 128 0.0 2.0 0.00 0.21 0.21 83 969.3
20260906210124 77 128 0.0 1.0 0.00 0.21 0.21 82 969.3
20260906205622 77 128 0.0 0.0 0.01 0.21 0.21 82 969.4
20260906205115 77 128 0.0 0.0 0.01 0.21 0.21 82 969.4
20260906204609 77 128 0.0 0.0 0.01 0.21 0.21 82 969.4
20260906204103 76 128 0.0 0.0 0.01 0.21 0.21 81 969.3
20260906203052 76 128 0.0 0.0 0.01 0.21 0.21 80 968.9
20260906202546 76 128 0.0 0.0 0.02 0.21 0.21 79 968.7
20260906202040 76 128 0.0 0.0 0.02 0.21 0.21 78 968.8
20260906201534 76 128 0.0 0.0 0.02 0.21 0.21 77 968.9
20260906201027 76 128 0.0 0.0 0.02 0.21 0.21 77 969.1
20260906200529 75 128 0.0 0.0 0.03 0.21 0.21 76 969.1
20260906200026 75 128 0.0 0.0 0.03 0.21 0.21 76 969.2
20260906195023 75 128 0.0 0.0 0.02 0.20 0.20 77 969.4
20260906194019 75 128 0.0 0.0 0.02 0.20 0.20 79 969.6
20260906193014 75 128 0.0 0.0 0.02 0.20 0.20 82 969.7
20260906192513 75 128 0.0 0.0 0.01 0.19 0.19 82 969.7
20260906192010 76 128 0.0 0.0 0.01 0.19 0.19 83 969.4
20260906191508 76 128 0.0 0.0 0.01 0.19 0.19 84 969.1
20260906191006 76 128 0.0 0.0 0.01 0.19 0.19 84 969.1
20260906190505 76 128 0.0 0.0 0.00 0.18 0.18 84 969.1
20260906190003 76 128 0.0 0.0 0.00 0.18 0.18 85 969.1
20260906185500 76 128 0.0 0.0 0.00 0.18 0.18 85 969.2
20260906184959 77 128 0.0 0.0 0.00 0.18 0.18 85 969.2
20260906184456 77 128 0.0 1.0 0.00 0.18 0.18 85 969.3
20260906183955 77 128 0.0 1.0 0.00 0.18 0.18 85 969.7
20260906183453 77 128 0.0 3.0 0.00 0.18 0.18 85 969.8
20260906182450 78 129 1.0 7.0 0.00 0.18 0.18 85 969.8
20260906181948 78 60 2.0 6.0 0.00 0.18 0.18 85 970.0
20260906181448 78 90 2.0 8.0 0.00 0.18 0.18 85 970.0
20260906180941 78 57 3.0 8.0 0.00 0.18 0.18 85 969.9
20260906180437 79 47 3.0 8.0 0.00 0.18 0.18 84 969.8
20260906175930 79 98 2.0 8.0 0.00 0.18 0.18 84 969.7
20260906174918 79 92 2.0 7.0 0.00 0.18 0.18 85 969.6
20260906173400 80 98 2.0 7.0 0.00 0.18 0.18 84 969.9
20260906172854 80 49 2.0 8.0 0.00 0.18 0.18 84 970.0
20260906171842 79 44 4.0 12.0 0.00 0.18 0.18 85 969.9
20260906171336 79 86 3.0 12.0 0.00 0.18 0.18 84 969.9
20260906170830 78 113 1.0 5.0 0.00 0.18 0.18 84 969.9
20260906165312 77 73 1.0 6.0 0.00 0.18 0.18 85 970.0
20260906164259 76 140 1.0 6.0 0.00 0.18 0.18 84 970.1
20260906163754 76 140 1.0 6.0 0.00 0.18 0.18 83 970.2
20260906163248 75 117 0.0 3.0 0.00 0.18 0.18 82 970.2
20260906162742 75 88 0.0 2.0 0.00 0.18 0.18 81 970.3
20260906162235 74 87 1.0 4.0 0.00 0.18 0.18 78 970.3
20260906161730 74 73 1.0 4.0 0.00 0.18 0.18 76 970.4
20260906161224 73 83 0.0 4.0 0.00 0.18 0.18 72 970.3
20260906160717 73 46 0.0 3.0 0.00 0.18 0.18 69 970.4
20260906160211 72 67 0.0 1.0 0.00 0.18 0.18 69 970.4
20260906155705 72 76 0.0 2.0 0.00 0.18 0.18 68 970.4
20260906154654 71 39 0.0 0.0 0.01 0.18 0.18 67 970.5
20260906154148 71 39 0.0 2.0 0.02 0.18 0.18 67 970.4
20260906153643 70 39 0.0 4.0 0.02 0.18 0.18 67 970.3
20260906153137 70 39 0.0 4.0 0.03 0.18 0.18 68 970.2
20260906152630 70 59 0.0 2.0 0.04 0.18 0.18 67 970.0
20260906152123 70 51 0.0 3.0 0.05 0.18 0.18 67 970.0
20260906150606 70 119 0.0 1.0 0.15 0.18 0.18 67 970.3
20260906150059 70 123 0.0 4.0 0.18 0.18 0.18 67 970.3
20260906145553 70 123 0.0 4.0 0.18 0.18 0.18 67 970.3
20260906145047 70 96 0.0 2.0 0.17 0.17 0.17 67 970.4
20260906144541 70 97 0.0 0.0 0.17 0.17 0.17 67 970.6
20260906144036 70 97 0.0 0.0 0.16 0.16 0.16 67 970.7
20260906143530 70 97 0.0 0.0 0.16 0.16 0.16 67 970.8
20260906143024 70 97 0.0 0.0 0.15 0.15 0.15 67 970.8
20260906142518 70 97 0.0 0.0 0.13 0.13 0.14 67 971.1
20260906142012 70 97 0.0 3.0 0.12 0.12 0.12 67 971.3
20260906141000 70 5 1.0 9.0 0.07 0.07 0.07 67 971.0
20260906135948 71 30 2.0 9.0 0.00 0.00 0.00 67 971.0
20260906134936 71 271 0.0 0.0 0.00 0.00 0.00 67 970.5
20260906134429 71 77 0.0 0.0 0.00 0.00 0.00 67 970.1
20260906133923 71 78 0.0 0.0 0.00 0.00 0.00 67 970.0
20260906133424 71 79 0.0 0.0 0.00 0.00 0.00 67 970.1
20260906131416 71 79 0.0 2.0 0.00 0.00 0.00 67 970.0
20260906130914 71 79 0.0 2.0 0.00 0.00 0.00 67 970.0
20260906130412 71 75 0.0 0.0 0.00 0.00 0.00 67 970.0
20260906125909 71 75 0.0 0.0 0.00 0.00 0.00 67 970.1
20260906125410 71 75 0.0 0.0 0.00 0.00 0.00 67 970.2
20260906124403 70 75 0.0 0.0 0.00 0.00 0.00 67 970.0
20260906123904 70 75 0.0 0.0 0.00 0.00 0.00 67 970.0
20260906123404 70 75 0.0 0.0 0.00 0.00 0.00 67 969.9
20260906122902 70 75 0.0 0.0 0.00 0.00 0.00 66 969.9
20260906122402 69 75 0.0 0.0 0.00 0.00 0.00 67 969.9
20260906121902 69 75 0.0 0.0 0.00 0.00 0.00 67 969.9
20260906121400 69 75 0.0 1.0 0.00 0.00 0.00 67 969.7
20260906120900 69 76 0.0 4.0 0.00 0.00 0.00 67 969.5
20260906114852 67 311 0.0 0.0 0.00 0.00 0.00 67 969.0
20260906113847 67 311 0.0 0.0 0.00 0.00 0.00 67 968.9
20260906113348 67 311 0.0 0.0 0.00 0.00 0.00 67 968.9
20260906112850 66 311 0.0 0.0 0.00 0.00 0.00 68 968.8
20260906112348 66 311 0.0 0.0 0.00 0.00 0.00 68 968.7
20260906111848 66 311 0.0 0.0 0.00 0.00 0.00 68 968.7
20260906111348 66 311 0.0 0.0 0.00 0.00 0.00 68 968.6
20260906110848 66 311 0.0 0.0 0.00 0.00 0.00 68 968.6
20260906110348 66 311 0.0 0.0 0.00 0.00 0.00 68 968.5
20260906105843 66 311 0.0 0.0 0.00 0.00 0.00 68 968.5
20260906105344 66 311 0.0 0.0 0.00 0.00 0.00 68 968.5
20260906104844 66 311 0.0 0.0 0.00 0.00 0.00 68 968.5
20260906103844 66 311 0.0 0.0 0.00 0.00 0.00 68 968.5
20260906103343 66 311 0.0 0.0 0.00 0.00 0.00 68 968.6
20260906102843 66 311 0.0 0.0 0.00 0.00 0.00 68 968.5
20260906102344 66 311 0.0 0.0 0.00 0.00 0.00 68 968.5
20260906101844 66 311 0.0 0.0 0.00 0.00 0.00 68 968.4
20260906101339 66 311 0.0 0.0 0.00 0.00 0.00 68 968.4
20260906100839 66 311 0.0 0.0 0.00 0.00 0.00 68 968.3
20260906100339 66 311 0.0 0.0 0.00 0.00 0.00 68 968.2
20260906095839 66 311 0.0 0.0 0.00 0.00 0.00 68 968.1
20260906095340 66 311 0.0 0.0 0.00 0.00 0.00 68 967.9
20260906094843 66 311 0.0 0.0 0.00 0.00 0.00 68 967.8
20260906094343 66 311 0.0 0.0 0.00 0.00 0.00 68 967.9
20260906093843 66 311 0.0 0.0 0.00 0.00 0.00 68 967.9
20260906092835 66 311 0.0 0.0 0.00 0.00 0.00 68 967.9
20260906092329 66 311 0.0 0.0 0.00 0.00 0.00 68 967.9
20260906091822 66 311 0.0 0.0 0.00 0.00 0.00 68 967.9
20260906091315 66 311 0.0 0.0 0.00 0.00 0.00 68 967.8
20260906090809 66 311 0.0 0.0 0.00 0.00 0.00 68 967.8
20260906090303 66 311 0.0 0.0 0.00 0.00 0.00 68 967.8
20260906085754 66 311 0.0 0.0 0.00 0.00 0.00 68 967.8
20260906085249 66 311 0.0 0.0 0.00 0.00 0.00 68 967.8
20260906084239 67 311 0.0 0.0 0.00 0.00 0.00 68 967.8
20260906083734 67 311 0.0 0.0 0.00 0.00 0.00 68 967.7
20260906083227 67 311 0.0 0.0 0.00 0.00 0.00 68 967.7
20260906082721 67 311 0.0 0.0 0.00 0.00 0.00 68 967.7
20260906082216 67 311 0.0 0.0 0.00 0.00 0.00 68 967.7
20260906081202 67 311 0.0 0.0 0.00 0.00 0.00 68 967.8
20260906080655 67 311 0.0 0.0 0.00 0.00 0.00 68 967.7
20260906080149 67 311 0.0 0.0 0.00 0.00 0.00 68 967.6
20260906075137 67 311 0.0 0.0 0.00 0.00 0.00 68 967.5
20260906074634 67 311 0.0 0.0 0.00 0.00 0.00 68 967.4
20260906073621 67 311 0.0 0.0 0.00 0.00 0.00 68 967.4
20260906072610 67 311 0.0 0.0 0.00 0.00 0.00 68 967.3
20260906071558 67 311 0.0 0.0 0.00 0.00 0.00 68 967.3
20260906071052 67 311 0.0 0.0 0.00 0.00 0.00 68 967.3
20260906070545 67 311 0.0 0.0 0.00 0.00 0.00 68 967.6
20260906070039 67 311 0.0 0.0 0.00 0.00 0.00 68 967.6
20260906065533 68 311 0.0 0.0 0.00 0.00 0.00 68 967.5
20260906065028 67 311 0.0 0.0 0.00 0.00 0.00 68 967.6
20260906064521 68 311 0.0 0.0 0.00 0.00 0.00 68 967.9
20260906064015 68 311 0.0 0.0 0.00 0.00 0.00 68 967.9
20260906063509 68 311 0.0 0.0 0.00 0.00 0.00 68 967.9
20260906063003 68 311 0.0 0.0 0.00 0.00 0.00 68 968.1
20260906062458 68 311 0.0 0.0 0.00 0.00 0.00 68 968.2
20260906061949 68 311 0.0 0.0 0.00 0.00 0.00 68 968.3
20260906061443 68 311 0.0 0.0 0.00 0.00 0.00 68 968.4
20260906060937 69 311 0.0 0.0 0.00 0.00 0.00 68 968.4
20260906060431 69 311 0.0 0.0 0.00 0.00 0.00 68 968.5
20260906055926 69 311 0.0 0.0 0.00 0.00 0.00 68 968.5
20260906055419 69 311 0.0 0.0 0.00 0.00 0.00 68 968.4
20260906054913 69 311 0.0 0.0 0.00 0.00 0.00 68 968.5
20260906054406 69 311 0.0 0.0 0.00 0.00 0.00 68 968.5
20260906053902 69 311 0.0 0.0 0.00 0.00 0.00 68 968.5
20260906053354 69 311 0.0 0.0 0.00 0.00 0.00 68 968.6
20260906052848 69 311 0.0 0.0 0.00 0.00 0.00 68 968.5
20260906052342 69 311 0.0 0.0 0.00 0.00 0.00 68 968.5
20260906051837 69 311 0.0 0.0 0.00 0.00 0.00 68 968.7
20260906051330 69 311 0.0 0.0 0.00 0.00 0.00 69 968.8
20260906050333 69 311 0.0 0.0 0.00 0.00 0.00 69 968.7